Morris, IL

5:32 AM CDT on September 26, 2016 (GMT -0500)
Morris

Weather History for KC09 - July, 2013

Change the Weather History Date:

Thursday, July 4, 2013

  Actual Average (KLOT) Record (KLOT)
Temperature  
Mean Temperature 70 °F 74 °F  
Max Temperature 83 °F 84 °F 99 °F (2012)
Min Temperature 58 °F 64 °F 52 °F (1997)
Degree Days  
Heating Degree Days 0 0  
Month to date heating degree days 0  
Since 1 June heating degree days 33  
Since 1 July heating degree days 0  
Cooling Degree Days 6 9  
Month to date cooling degree days 36  
Year to date cooling degree days 274  
Since 1 June cooling degree days 216  
Growing Degree Days 20 (Base 50)    
Moisture  
Dew Point 62 °F    
Average Humidity 74    
Maximum Humidity 100    
Minimum Humidity 50    
Precipitation  
Precipitation 0.00 in 0.14 in 0.57 in (2009)
Month to date precipitation 0.54  
Year to date precipitation 19.58  
Sea Level Pressure  
Sea Level Pressure 30.07 in    
Wind  
Wind Speed 4 mph (SSE)    
Max Wind Speed 16 mph    
Max Gust Speed 21 mph    
Visibility 8 miles    
Events Fog    
T = Trace of Precipitation, MM = Missing Value Source: NWS Daily Summary

Daily Weather History Graph

Daily Weather History Graph

Search for Another Location

Airport or City:

Trip Planner

Search our weather history database for the weather conditions in past years. The results will help you decide how hot, cold, wet, or windy it might be!

Date:

Astronomy

Jul. 04, 2013 Rise Set
Actual Time 5:25 AM CDT 8:30 PM CDT
Civil Twilight 4:51 AM CDT 9:04 PM CDT
Nautical Twilight 4:08 AM CDT 9:46 PM CDT
Astronomical Twilight 3:18 AM CDT 10:37 PM CDT
Moon 2:43 AM CDT (7/4) 5:33 PM CDT (7/4)
Length of Visible Light 16h 12m
Length of Day
15h 04m
Waning Crescent, 11% of the Moon is Illuminated
Jul 4
Waning Crescent
Jul 8
New
Jul 15
First Quarter
Jul 22
Full
Jul 29
Last Quarter

Hourly Weather History & Observations

Time (CDT) Temp. Heat Index Dew Point Humidity Pressure Visibility Wind Dir Wind Speed Gust Speed Precip Events Conditions
12:15 AM 63.3 °F - 62.8 °F 98% 30.07 in 5.0 mi Calm Calm - N/A   Clear
12:35 AM 62.6 °F - 62.1 °F 98% 30.08 in 2.0 mi Calm Calm - N/A   Clear
12:55 AM 62.4 °F - 62.4 °F 100% 30.07 in 0.8 mi Calm Calm - N/A   Mist
1:15 AM 62.8 °F - 62.8 °F 100% 30.07 in 2.5 mi Calm Calm - N/A   Clear
1:35 AM 62.8 °F - 62.8 °F 100% 30.07 in 4.0 mi Calm Calm - N/A   Clear
1:55 AM 62.6 °F - 62.6 °F 100% 30.07 in 4.0 mi Calm Calm - N/A   Clear
2:15 AM 62.2 °F - 62.2 °F 100% 30.06 in 3.0 mi Calm Calm - N/A   Clear
2:35 AM 61.5 °F - 61.5 °F 100% 30.06 in 3.0 mi SSE 3.5 mph - N/A   Clear
2:55 AM 60.3 °F - 60.3 °F 100% 30.07 in 1.2 mi SSE 3.5 mph - N/A   Mist
3:15 AM 59.2 °F - 59.2 °F 100% 30.07 in 0.2 mi South 3.5 mph - N/A Fog Fog
3:35 AM 59.2 °F - 59.2 °F 100% 30.07 in 1.2 mi South 3.5 mph - N/A   Mist
3:55 AM 59.5 °F - 59.5 °F 100% 30.07 in 2.5 mi South 3.5 mph - N/A   Clear
4:15 AM 59.5 °F - 59.5 °F 100% 30.07 in 2.5 mi Calm Calm - N/A   Clear
4:35 AM 58.6 °F - 58.6 °F 100% 30.07 in 1.0 mi Calm Calm - N/A   Mist
4:55 AM 59.0 °F - 59.0 °F 100% 30.08 in 2.5 mi SE 3.5 mph - N/A   Clear
5:15 AM 59.0 °F - 59.0 °F 100% 30.08 in 2.5 mi SSE 3.5 mph - N/A   Clear
5:35 AM 58.5 °F - 58.5 °F 100% 30.08 in 2.5 mi SE 3.5 mph - N/A   Clear
5:55 AM 59.0 °F - 59.0 °F 100% 30.09 in 3.0 mi SE 3.5 mph - N/A   Clear
6:15 AM 59.5 °F - 59.2 °F 99% 30.09 in 4.0 mi Calm Calm - N/A   Scattered Clouds
6:35 AM 60.4 °F - 59.5 °F 97% 30.09 in 5.0 mi Calm Calm - N/A   Clear
6:55 AM 61.3 °F - 60.1 °F 96% 30.09 in 4.0 mi Calm Calm - N/A   Clear
7:15 AM 62.6 °F - 60.8 °F 94% 30.10 in 5.0 mi SE 3.5 mph - N/A   Clear
7:35 AM 63.7 °F - 61.0 °F 91% 30.10 in 7.0 mi South 4.6 mph - N/A   Clear
7:55 AM 65.5 °F - 61.7 °F 88% 30.11 in 7.0 mi South 4.6 mph - N/A   Clear
8:15 AM 66.4 °F - 62.2 °F 86% 30.11 in 10.0 mi SSE 4.6 mph - N/A   Clear
8:35 AM 68.0 °F - 63.0 °F 84% 30.11 in 10.0 mi SSE 3.5 mph - N/A   Clear
8:55 AM 69.1 °F - 63.1 °F 81% 30.11 in 10.0 mi SSE 3.5 mph - N/A   Clear
9:15 AM 71.1 °F - 62.6 °F 75% 30.11 in 10.0 mi Calm Calm - N/A   Clear
9:35 AM 72.1 °F - 62.2 °F 71% 30.11 in 10.0 mi Calm Calm - N/A   Clear
9:55 AM 73.8 °F - 62.2 °F 67% 30.10 in 10.0 mi SSW 5.8 mph - N/A   Clear
10:15 AM 74.7 °F - 62.8 °F 66% 30.11 in 10.0 mi South 5.8 mph - N/A   Clear
10:35 AM 76.1 °F - 63.3 °F 64% 30.11 in 10.0 mi South 4.6 mph - N/A   Clear
10:55 AM 77.0 °F - 62.6 °F 61% 30.10 in 10.0 mi SW 5.8 mph - N/A   Clear
11:15 AM 77.7 °F - 63.7 °F 62% 30.10 in 10.0 mi South 6.9 mph - N/A   Clear
11:35 AM 79.2 °F - 62.8 °F 57% 30.10 in 10.0 mi SSE 8.1 mph - N/A   Clear
11:55 AM 79.2 °F - 62.8 °F 57% 30.09 in 10.0 mi South 6.9 mph - N/A   Clear
12:15 PM 80.8 °F 82.2 °F 63.7 °F 56% 30.09 in 10.0 mi SSW 9.2 mph - N/A   Clear
12:35 PM 80.6 °F 81.8 °F 62.8 °F 54% 30.09 in 10.0 mi SSW 9.2 mph - N/A   Scattered Clouds
12:55 PM 81.7 °F 82.7 °F 62.2 °F 52% 30.08 in 10.0 mi SSE 6.9 mph - N/A   Scattered Clouds
1:15 PM 81.9 °F 83.1 °F 63.3 °F 53% 30.08 in 10.0 mi SSE 10.4 mph - N/A   Scattered Clouds
1:35 PM 81.7 °F 83.0 °F 63.3 °F 54% 30.08 in 10.0 mi SSE 9.2 mph 16.1 mph N/A   Scattered Clouds
1:55 PM 82.0 °F 83.1 °F 62.6 °F 52% 30.07 in 10.0 mi South 6.9 mph - N/A   Scattered Clouds
2:15 PM 82.9 °F 84.0 °F 63.1 °F 51% 30.07 in 10.0 mi SSE 9.2 mph 17.3 mph N/A   Clear
2:35 PM 82.8 °F 83.8 °F 63.1 °F 51% 30.07 in 10.0 mi SSE 11.5 mph - N/A   Scattered Clouds
2:55 PM 81.9 °F 83.1 °F 63.0 °F 53% 30.07 in 10.0 mi SSE 11.5 mph - N/A   Scattered Clouds
3:15 PM 83.3 °F 84.4 °F 63.3 °F 51% 30.06 in 10.0 mi SSE 15.0 mph 20.7 mph N/A   Scattered Clouds
3:35 PM 83.1 °F 84.0 °F 62.8 °F 50% 30.06 in 10.0 mi SSE 16.1 mph - N/A   Clear
3:55 PM 80.6 °F 81.7 °F 62.1 °F 53% 30.06 in 10.0 mi SSE 13.8 mph - N/A   Scattered Clouds
4:15 PM 80.8 °F 81.9 °F 62.2 °F 53% 30.06 in 10.0 mi SSE 15.0 mph - N/A   Scattered Clouds
4:35 PM 80.8 °F 81.8 °F 61.7 °F 52% 30.05 in 10.0 mi SSE 13.8 mph - N/A   Clear
4:55 PM 81.1 °F 82.0 °F 61.7 °F 51% 30.05 in 10.0 mi South 11.5 mph - N/A   Clear
5:15 PM 81.9 °F 82.6 °F 61.7 °F 50% 30.04 in 10.0 mi SSE 11.5 mph 16.1 mph N/A   Scattered Clouds
5:35 PM 81.0 °F 81.9 °F 62.1 °F 52% 30.04 in 10.0 mi SSE 12.7 mph - N/A   Scattered Clouds
5:55 PM 81.0 °F 81.9 °F 61.7 °F 52% 30.04 in 10.0 mi SSE 12.7 mph - N/A   Mostly Cloudy
6:15 PM 79.9 °F - 63.1 °F 56% 30.04 in 10.0 mi SSE 11.5 mph - N/A   Scattered Clouds
6:35 PM 78.3 °F - 63.1 °F 60% 30.05 in 10.0 mi SSE 9.2 mph - N/A   Clear
6:55 PM 77.9 °F - 62.8 °F 60% 30.05 in 10.0 mi SSE 9.2 mph - N/A   Clear
7:15 PM 77.4 °F - 62.4 °F 60% 30.05 in 10.0 mi SSE 10.4 mph - N/A   Clear
7:35 PM 76.6 °F - 62.4 °F 61% 30.05 in 10.0 mi SSE 8.1 mph - N/A   Mostly Cloudy
7:55 PM 76.5 °F - 62.1 °F 61% 30.05 in 10.0 mi SSE 6.9 mph - N/A   Overcast
8:15 PM 75.6 °F - 62.8 °F 64% 30.05 in 10.0 mi SSE 6.9 mph - N/A   Mostly Cloudy
8:35 PM 74.7 °F - 62.8 °F 66% 30.05 in 10.0 mi SSE 5.8 mph - N/A   Mostly Cloudy
8:55 PM 73.4 °F - 62.8 °F 69% 30.05 in 10.0 mi SSE 5.8 mph - N/A   Scattered Clouds
9:15 PM 72.7 °F - 62.6 °F 71% 30.06 in 10.0 mi SSE 8.1 mph - N/A   Scattered Clouds
9:35 PM 72.5 °F - 61.9 °F 69% 30.06 in 10.0 mi SSE 6.9 mph - N/A   Scattered Clouds
9:55 PM 71.6 °F - 61.7 °F 71% 30.07 in 10.0 mi South 5.8 mph - N/A   Scattered Clouds
10:15 PM 71.1 °F - 61.7 °F 72% 30.07 in 10.0 mi SSE 5.8 mph - N/A   Scattered Clouds
10:35 PM 70.5 °F - 61.9 °F 74% 30.07 in 10.0 mi South 4.6 mph - N/A   Scattered Clouds
10:55 PM 69.8 °F - 61.9 °F 76% 30.07 in 10.0 mi South 5.8 mph - N/A   Scattered Clouds
11:15 PM 68.9 °F - 61.9 °F 78% 30.07 in 10.0 mi South 5.8 mph - N/A   Scattered Clouds
11:35 PM 68.0 °F - 61.7 °F 80% 30.07 in 10.0 mi SSE 5.8 mph - N/A   Clear
11:55 PM 67.5 °F - 61.2 °F 80% 30.06 in 10.0 mi SSE 4.6 mph - N/A   Clear